This is the latest recevied weather packets stored in our database for station/object KC1TEM-13. If no packets are shown the sender has not sent any weather packets the latest 10 day(s).
| Time | Temp. | Humidity | Pressure | Rain* | Wind** | Luminosity | Snow |
|---|---|---|---|---|---|---|---|
| 1778012595 | 28.33° C | 30% | 1004.9 hPa | 0 mm | - | 387 W/m² | - |
| 1778012291 | 28.33° C | 30% | 1005.3 hPa | 0 mm | - | 475 W/m² | - |
| 1778011989 | 28.33° C | 30% | 1005.1 hPa | 0 mm | - | 479 W/m² | - |
| 1778011687 | 28.33° C | 31% | 1005 hPa | 0 mm | - | 520 W/m² | - |
| 1778011384 | 28.89° C | 31% | 1005 hPa | 0 mm | - | 206 W/m² | - |
| 1778011079 | 28.89° C | 32% | 1005.1 hPa | 0 mm | - | 551 W/m² | - |
| 1778010777 | 28.33° C | 32% | 1004.9 hPa | 0 mm | - | 589 W/m² | - |
| 1778010474 | 28.33° C | 32% | 1005.3 hPa | 0 mm | - | 284 W/m² | - |
| 1778010170 | 28.33° C | 32% | 1005 hPa | 0 mm | - | 110 W/m² | - |
| 1778009866 | 27.78° C | 33% | 1005.1 hPa | 0 mm | - | 172 W/m² | - |
| 1778009564 | 27.78° C | 32% | 1005.1 hPa | 0 mm | - | 151 W/m² | - |
| 1778009262 | 28.33° C | 32% | 1005.3 hPa | 0 mm | - | 541 W/m² | - |
| 1778008960 | 28.89° C | 31% | 1005.2 hPa | 0 mm | - | 163 W/m² | - |
| 1778008657 | 28.33° C | 32% | 1005.6 hPa | 0 mm | - | 162 W/m² | - |
| 1778008356 | 27.78° C | 33% | 1005.6 hPa | 0 mm | - | 683 W/m² | - |
| 1778008052 | 28.33° C | 33% | 1005.8 hPa | 0 mm | - | 195 W/m² | - |
| 1778007752 | 28.33° C | 32% | 1005.7 hPa | 0 mm | - | 257 W/m² | - |
| 1778007448 | 28.89° C | 30% | 1005.5 hPa | 0 mm | - | 743 W/m² | - |
| 1778007145 | 28.89° C | 29% | 1005.9 hPa | 0 mm | - | 735 W/m² | - |
| 1778006841 | 28.89° C | 29% | 1005.9 hPa | 0 mm | - | 748 W/m² | - |
| 1778006538 | 28.89° C | 29% | 1006 hPa | 0 mm | - | 223 W/m² | - |
| 1778006235 | 28.89° C | 30% | 1005.9 hPa | 0 mm | - | 716 W/m² | - |
| 1778005933 | 28.89° C | 33% | 1006 hPa | 0 mm | - | 778 W/m² | - |
| 1778005628 | 28.33° C | 32% | 1006.2 hPa | 0 mm | - | 800 W/m² | - |
| 1778005326 | 28.89° C | 32% | 1006.2 hPa | 0 mm | - | 779 W/m² | - |
* Rain latest hour (hover to see other rain measurements)
** Current wind speed in m/s (hover to see current wind gust speed)